This demonstration page uses our WeatherBlox Daily Observations layout. Learn more.

Left ArrowRight Arrow

41.12389, -100.76542

Hourly Observations for January 28, 2019

Temp ( °F °C ) Dew Point ( °F °C ) Humidity (%) Winds ( mph kmh ) Pressure ( in mb ) Visibility ( mi km ) Precip ( " mm )
12:53 am 00:53 Mostly Cloudy 39 3.9 29 -1.7 67 67 NNW 20 31 29.79 1009 10 16 0.00 0.00
1:53 am 01:53 Mostly Clear 37 2.8 26 -3.3 65 65 N 20 31 29.85 1011 10 16 0.00 0.00
2:53 am 02:53 Mostly Clear 33 0.6 21 -6.1 61 61 N 18 30 29.89 1012 10 16 0.00 0.00
3:53 am 03:53 Partly Cloudy 33 0.6 19 -7.2 56 56 N 29 46 29.93 1013 10 16 0.00 0.00
4:53 am 04:53 Mostly Clear 31 -0.6 18 -7.8 59 59 N 20 31 29.97 1015 10 16 0.00 0.00
5:53 am 05:53 Cloudy 30 -1.1 17 -8.3 58 58 N 21 33 30.01 1016 10 16 0.00 0.00
6:53 am 06:53 Cloudy 28 -2.2 14 -10 56 56 N 28 44 30.07 1018 10 16 0.00 0.00
7:53 am 07:53 Cloudy 28 -2.2 15 -9.4 58 58 N 20 31 30.11 1020 10 16 0.00 0.00
8:53 am 08:53 Cloudy 28 -2.2 15 -9.4 58 58 N 16 26 30.15 1021 10 16 0.00 0.00
9:53 am 09:53 Mostly Cloudy 26 -3.3 11 -11.7 53 53 N 26 43 30.21 1023 10 16 0.00 0.00
10:53 am 10:53 Sunny 30 -1.1 11 -11.7 45 45 N 21 33 30.19 1022 10 16 0.00 0.00
11:53 am 11:53 Cloudy 30 -1.1 10 -12.2 43 43 N 21 33 30.19 1022 10 16 0.00 0.00
12:53 pm 12:53 Cloudy 30 -1.1 14 -10 51 51 N 21 33 30.19 1022 10 16 0.00 0.00
1:53 pm 13:53 Sunny 33 0.6 5 -15 30 30 NNW 32 52 30.19 1022 10 16 0.00 0.00
2:53 pm 14:53 Sunny 33 0.6 4 -15.6 29 29 N 30 48 30.21 1023 10 16 0.00 0.00
3:53 pm 15:53 Sunny 33 0.6 -1 -18.3 23 23 N 31 50 30.21 1023 10 16 0.00 0.00
4:53 pm 16:53 Sunny 30 -1.1 0 -17.8 27 27 N 24 39 30.23 1024 10 16 0.00 0.00
5:53 pm 17:53 Mostly Cloudy 28 -2.2 5 -15 37 37 N 17 28 30.26 1025 10 16 0.00 0.00
6:53 pm 18:53 Mostly Clear 26 -3.3 3 -16.1 37 37 N 14 22 30.29 1026 10 16 0.00 0.00
7:53 pm 19:53 Mostly Cloudy 25 -3.9 6 -14.4 44 44 NNW 9 15 30.29 1026 10 16 0.00 0.00
8:53 pm 20:53 Cloudy 24 -4.4 8 -13.3 50 50 NW 8 13 30.27 1025 10 16 0.00 0.00
9:53 pm 21:53 Mostly Clear 18 -7.8 8 -13.3 65 65 NW 5 7 30.27 1025 10 16 0.00 0.00
10:53 pm 22:53 Clear 20 -6.7 10 -12.2 65 65 WNW 8 13 30.23 1024 10 16 0.00 0.00
11:53 pm 23:53 Clear 25 -3.9 11 -11.7 55 55 WNW 17 28 30.21 1023 10 16 0.00 0.00

Powered by AerisWeather